Location: Newark
(3.3223°N, 76.2348°W)
Time: 20:42:00
(UTC+00:00)

ISS - Visible Passes

Search period start: 11 November 2019 00:00
Search period end: 21 November 2019 00:00
Orbit: 412 x 421 km, 51.6° (Epoch: 12 November)

Date Brightness Start Highest point End Pass type
(mag) Time Alt. Az. Time Alt. Az. Time Alt. Az.
12 Nov -0.9 00:20:52 10° S 00:21:00 11° S 00:21:00 11° S visible
14 Nov -2.9 00:19:56 10° SW 00:22:29 48° SW 00:22:29 48° SW visible
14 Nov -3.2 23:31:46 10° SSW 23:34:55 41° SE 23:36:47 20° ENE visible
16 Nov -1.1 00:21:14 10° W 00:23:07 14° NW 00:24:03 13° NW visible
16 Nov -1.5 10:18:15 10° N 10:20:56 22° NE 10:23:36 10° ESE visible
16 Nov -2.1 23:31:44 10° WSW 23:34:44 31° NW 23:37:45 10° N visible
17 Nov -0.6 09:32:07 10° NE 09:32:31 10° NE 09:32:54 10° ENE visible
18 Nov -3.7 10:17:24 10° NW 10:20:43 64° SW 10:24:01 10° SSE visible
19 Nov -3.0 09:31:31 37° NNE 09:32:19 47° NE 09:35:34 10° SE visible
20 Nov -0.5 08:45:44 14° E 08:45:44 14° E 08:46:27 10° ESE visible
20 Nov -1.5 10:18:52 10° W 10:20:26 13° SW 10:22:02 10° SSW visible
